Regional Weather Roundup
Issued by NWS

Home | Current Version | Previous Version | Text Only | Print | Product List | Glossary Off
Versions: 1 2 3 4 5 6 7 8 9 10 11 12 13 14 15 16 17 18 19 20 21 22 23 24 25 26 27

000
ASUS45 KCYS 250710
RWRWY

WYOMING REGIONAL WEATHER ROUNDUP
NATIONAL WEATHER SERVICE CHEYENNE WY
100 AM MDT THU AUG 25 2016

NOTE:  "FAIR" INDICATES FEW OR NO CLOUDS BELOW 12,000 FEET
WITH NO SIGNIFICANT WEATHER AND/OR OBSTRUCTIONS TO VISIBILITY.

WYZ001-250800-
YELLOWSTONE NATIONAL PARK

CITY           SKY/WX    TMP DP  RH WIND       PRES   REMARKS
LK YELLOWSTONE   N/A     32  32 100 CALM      30.40F
W YELLOWSTONE  NOT AVBL

$$
WYZ002>013-054>058-071-098>099-250800-
NORTHERN WYOMING

CITY           SKY/WX    TMP DP  RH WIND       PRES   REMARKS
JACKSON        FAIR      46  36  66 N13       30.28F
CODY           CLOUDY    50  41  71 NW8       30.36R
GREYBULL       FAIR      58  38  47 NW15      30.27S
WORLAND        LGT RAIN  53  50  89 SW8       30.31F
SHERIDAN       CLOUDY    55  41  59 NW7       30.32F
BUFFALO        CLOUDY    52  39  61 NW10      30.34F
GILLETTE       FAIR      48  40  73 NW6       30.31R
HULETT         FAIR      50  39  66 CALM      30.30F
NEWCASTLE      LGT RAIN  57  37  47 N12       30.28R

$$
WYZ014>020-022>026-101>103-250800-
CENTRAL WYOMING

CITY           SKY/WX    TMP DP  RH WIND       PRES   REMARKS
BIG PINEY      FAIR      46  25  43 NW10      30.31S
PINEDALE       FAIR      45  32  61 NW8       30.30S
DUBOIS         CLOUDY    46  36  66 SE12      30.35R
LANDER         CLOUDY    51  45  79 CALM      30.34S
RIVERTON       LGT RAIN  48  47  96 N10       30.36S
CASPER         HVY RAIN  49  47  93 N15       30.33R FOG
DOUGLAS        CLOUDY    56  42  59 NE15      30.28S

$$
WYZ021-027>030-104>119-250800-
SOUTHERN WYOMING

CITY           SKY/WX    TMP DP  RH WIND       PRES   REMARKS
EVANSTON       FAIR      50  15  24 S6        30.28S
FORT BRIDGER   FAIR      56  18  22 W3        30.30S
ROCK SPRINGS   NOT AVBL
DIXON          FAIR      55  31  40 CALM      30.23R
RAWLINS        CLOUDY    52  38  58 NE21G26   30.28R
SARATOGA       FAIR      45  41  87 W8        30.26R
LARAMIE        FAIR      45  39  79 SE10      30.26F
CHEYENNE       FAIR      50  45  83 CALM      30.26F
TORRINGTON     CLOUDY    53  49  86 NW3       30.22R
PINE BLUFFS    FAIR      46  43  87 CALM      30.25S

$$




USA.gov is the U.S. government's official web portal to all federal, state and local government web resources and services.